Home   Weather   Bielefeld   Past weeks

Flag for Germany Past Weather in Bielefeld, North Rhine-Westphalia, Germany — Yesterday and Last 2 Weeks

Now
63 °F

Clear.


Feels Like: 63 °F
Forecast: 58 / 68 °F
Wind: 7 mph from Southwest

Location: Paderborn / Lippstadt

Current Time: Jul 26, 2017 at 10:58:37 pm

Latest Report: Jul 26, 2017 at 10:20 pm


Visibility: 10 mi

Pressure: 29.80 "Hg

Humidity: 73%

Dew Point: 54 °F

Location of BielefeldLocation

Past Weather in Bielefeld — Graph

°F

Bielefeld Temperature Yesterday

Maximum temperature yesterday: 59 °F (at 1:20 pm)
Minimum temperature yesterday: 55 °F (at 12:20 am)
Average temperature yesterday: 57 °F

High & Low Weather Summary for the Past Weeks

 TemperatureHumidityPressure
High90 °F (Jul 19, 4:20 pm)100% (Jul 12, 4:20 pm)30.24 "Hg (Jul 12, 4:20 pm)
Low48 °F (Jul 13, 4:50 am)33% (Jul 19, 4:20 pm)29.65 "Hg (Jul 25, 8:20 pm)
Average63 °F74%29.97 "Hg
* Reported Jul 11 9:20 pm — Jul 26 9:20 pm, Bielefeld. Weather by CustomWeather, © 2017

Note: Actual official high and low records may vary slightly from our data, if they occured in-between our weather recording intervals... More about our weather records

Advertising

Bielefeld Weather History for the Previous 24 Hours

Scroll right to see more
 ConditionsComfort  
Time TempWeatherWind HumidityBarometerVisibility
9:20 pm
Wed, Jul 26
61 °FSunny.7 mph72%29.80 "Hg10 mi
8:50 pm66 °FSunny.6 mph60%29.80 "Hg10 mi
8:20 pm68 °FPassing clouds.8 mph56%29.80 "HgN/A
7:50 pm70 °FPassing clouds.7 mph50%29.80 "HgN/A
7:20 pm70 °FPassing clouds.7 mph46%29.80 "HgN/A
6:50 pm68 °FPassing clouds.6 mph53%29.77 "HgN/A
6:20 pm68 °FPassing clouds.6 mph56%29.80 "HgN/A
5:50 pm70 °FPassing clouds.7 mph53%29.77 "HgN/A
5:20 pm70 °FPassing clouds.7 mph53%29.77 "HgN/A
4:50 pm70 °FScattered clouds.6 mph57%29.80 "HgN/A
4:20 pm66 °FScattered clouds.5 mph64%29.80 "HgN/A
3:50 pm64 °FPartly sunny.5 mph68%29.80 "HgN/A
3:20 pm64 °FBroken clouds.3 mph68%29.80 "HgN/A
2:50 pm64 °FBroken clouds.6 mph68%29.80 "HgN/A
2:20 pm64 °FBroken clouds.8 mph68%29.80 "HgN/A
1:50 pm64 °FBroken clouds.5 mph68%29.80 "HgN/A
1:20 pm64 °FBroken clouds.6 mph64%29.80 "HgN/A
12:50 pm64 °FBroken clouds.6 mph78%29.80 "HgN/A
12:20 pm63 °FBroken clouds.7 mph77%29.77 "HgN/A
11:50 am63 °FBroken clouds.9 mph77%29.77 "HgN/A
11:20 am63 °FBroken clouds.8 mph83%29.77 "HgN/A
10:50 am61 °FBroken clouds.7 mph83%29.77 "HgN/A
10:20 am59 °FBroken clouds.8 mph88%29.77 "HgN/A
9:50 am59 °FBroken clouds.7 mph88%29.77 "HgN/A
9:20 am57 °FBroken clouds.7 mph94%29.77 "HgN/A
8:50 am57 °FDrizzle. Broken clouds.6 mph94%29.77 "Hg6 mi
8:20 am57 °FLight rain. Broken clouds.9 mph100%29.74 "Hg6 mi
7:50 am57 °FLight rain. Partly sunny.8 mph94%29.74 "Hg5 mi
7:20 am57 °FLight rain. Partly sunny.8 mph94%29.74 "Hg4 mi
6:50 am57 °FLight rain. Partly sunny.9 mph94%29.74 "Hg4 mi
6:20 am57 °FLight rain. Fog.9 mph94%29.74 "Hg2 mi
5:50 am57 °FLight rain. Fog.9 mph94%29.74 "Hg2 mi
5:20 am57 °FFog.9 mph94%29.74 "Hg3 mi
4:50 am57 °FFog.10 mph94%29.74 "Hg3 mi
4:20 am57 °FFog.9 mph94%29.74 "Hg3 mi
3:50 am57 °FPassing clouds.8 mph94%29.74 "Hg4 mi
3:20 am57 °FFog.9 mph94%29.74 "Hg3 mi
2:50 am57 °FFog.8 mph94%29.74 "Hg3 mi
2:20 am57 °FLight rain. Low clouds.7 mph94%29.74 "Hg3 mi
1:50 am55 °FRain. Passing clouds.6 mph100%29.71 "Hg4 mi
1:20 am55 °FRain. Mostly cloudy.6 mph100%29.71 "Hg4 mi
12:50 am57 °FLight rain. Partly cloudy.6 mph100%29.71 "Hg4 mi
12:20 am57 °FLight rain. Passing clouds.3 mph94%29.71 "Hg4 mi
11:50 pm
Tue, Jul 25
57 °FRain. Passing clouds.5 mph94%29.74 "Hg4 mi
11:20 pm57 °FRain. Passing clouds.6 mph94%29.71 "Hg4 mi
10:50 pm57 °FRain. Passing clouds.7 mph94%29.71 "Hg4 mi
10:20 pm57 °FRain. Fog.8 mph100%29.71 "Hg2 mi
Weather by CustomWeather, © 2017

See weather overviewHow to use our weather pages